Location: Klein M�hlingen
(51.9472°N, 11.7453°E)
Time: 04:13:12
(UTC+00:00)

Nauka - Pass Details

Date: 30 September 2021
Orbit: 417 x 423 km, 51.6° (Epoch: 26 October)

Event Time Altitude Azimuth Distance (km) Brightness Sun altitude
Rises 17:26:41 0° 277° (W) 2,365 ? -6.1°
Reaches altitude 10° 17:28:47 10° 276° (W) 1,501 ? -6.4°
Maximum altitude 17:32:09 75° 191° (S) 438 ? -6.9°
Drops below altitude 10° 17:35:31 10° 106° (ESE) 1,501 ? -7.5°
Enters shadow 17:35:35 10° 106° (ESE) 1,532 ? -7.5°
